Location: Unspecified
(0.0000°N, 0.0000°E)
Time: 13:54:09
(UTC+00:00)

THORAD DELTA 1 DEB - Pass Details

Date: 18 February 2026
Orbit: 1442 x 1568 km, 101.4° (Epoch: 22 February)

Event Time Altitude Azimuth Distance (km) Brightness Sun altitude
Exits shadow 20:00:03 32° 120° (ESE) 2,459 ? -26.0°
Drops below altitude 10° 20:06:28 10° 166° (SSE) 3,747 ? -27.5°
Sets 20:09:41 0° 175° (S) 4,721 ? -28.3°
